www.pogodaiklimat.ru

Погода и климат >> Архив погоды >> Гана >> Солтпонд


ПОГОДА в Солтпонде

  • Прогноз погоды в Солтпонде
  • Монитор погоды в Солтпонде

АРХИВ ПОГОДЫ в Солтпонде

Время (UTC), дата Ветер
(напр.,м/с)
 
Видим.   Явления Облачность Т
(С)
Тd
(С)
f
(%)
Тe
(С)
Тes
(С)
Комфортность P
(гПа)
Po
(гПа)
Тmin
(С)
Tmax
(С)
R
(мм)
R24
(мм)
S
(см)
03 12.02 штиль 0 18 км ясно +27.0 +26.1 95 +41 +41 опасность
перегрева
1008.4 1003.0
06 12.02 штиль 0 400 м туман ясно +26.3 +25.9 98 +39 +39 очень
душно
1009.7 1004.3 +25.6
09 12.02 ЮЗ 1 16 км {туман} 9/5 330 м
[Sc Ac trans]
+27.4 +25.5 89 +40 +43 очень
душно
1011.9 1006.5
12 12.02 ЮЗ 1 18 км {туман} 1/1 480 м
[Cu med, cong]
+31.8 +26.1 72 +48 +70 опасность
перегрева
1010.3 1005.0
15 12.02 ЮЗ 2 20 км 3/1 480 м
[Cu med, cong Ci sp]
+32.3 +27.1 74 +50 +60 опасность
перегрева
1007.7 1002.4
18 12.02 ЮЗ 2 18 км 4/0
[Ci sp]
+30.0 +26.4 81 +46 +46 опасность
перегрева
1008.4 1003.1 +32.3
03 13.02 СЗ 1 16 км 3/3 330 м
[Sc]
+28.0 +26.4 91 +43 +43 опасность
перегрева
1010.2 1004.8
09 13.02 СЗ 2 16 км в посл. час туман 9/5 330 м
[Sc Cs]
+28.0 +26.7 93 +44 +48 опасность
перегрева
1012.8 1007.4
12 13.02 ЮЗ 2 18 км {туман} 9/1 450 м
[Cu med, cong Cs]
+31.8 +26.7 74 +49 +63 опасность
перегрева
1011.1 1005.8
15 13.02 ЮЗ 2 18 км 8/0
[Cs]
+31.8 +27.1 76 +50 +58 опасность
перегрева
1008.7 1003.4
18 13.02 ЮЗ 2 18 км 8/1 50 м
[Sc Cs]
+22.9 +26.4 100 +32 +32 очень
душно
1009.8 1004.3 +32.0
21 13.02 ЮЗ 1 18 км 3/1 330 м
[Sc Ci sp]
+29.0 +26.4 86 +44 +44 опасность
перегрева
1012.2 1006.8
00 14.02 ЮЗ 1 16 км 6/3 <50 м
[Sc Ac trans]
+28.8 +26.4 87 +44 +44 опасность
перегрева
1012.3 1006.9
03 14.02 штиль 0 16 км 4/1 330 м
[Sc Ac trans]
+27.5 +24.7 85 +39 +39 очень
душно
1011.4 1006.0
09 14.02 ЮЗ 1 18 км 8/4 330 м
[Cu Sc Cs]
+29.0 +27.0 89 +46 +52 опасность
перегрева
1013.9 1008.5
12 14.02 ЮЗ 2 20 км 9/1 480 м
[Cu med, cong Cs]
+31.8 +26.8 75 +49 +64 опасность
перегрева
1012.3 1007.0
15 14.02 ЮЗ 2 20 км 8/0
[Cs]
+32.0 +27.0 75 +50 +59 опасность
перегрева
1009.8 1004.5
18 14.02 ЮЗ 2 18 км 5/0
[Ac trans Ci sp]
+32.0 +27.1 75 +50 +50 опасность
перегрева
1010.5 1005.2 +32.0
21 14.02 СЗ 2 18 км 9/1 330 м
[Sc Cs]
+29.4 +26.8 86 +46 +46 опасность
перегрева
1013.2 1007.8
00 15.02 0 н/о +27.0 1013.4
03 15.02 ЮЗ 3 14 км 9/3 330 м
[Sc Cs]
+28.8 +26.8 89 +45 +45 опасность
перегрева
1012.3 1006.9
09 15.02 СЗ 1 18 км {гроза} 8/1 450 м
[Cu med, cong Cs]
+28.5 +26.6 89 +44 +53 опасность
перегрева
1014.8 1009.4
12 15.02 ЮЗ 2 18 км {гроза} 8/3 480 м
[Cu med, cong Cs]
+31.5 +26.9 77 +49 +61 опасность
перегрева
1012.8 1007.5
18 15.02 ЮЗ 1 18 км 5/1 360 м
[Sc Ac trans Ci sp]
+30.0 +27.1 84 +47 +47 опасность
перегрева
1010.5 1005.2 +32.0
00 16.02 ЮЗ 2 16 км 9/5 330 м
[Sc Cs]
+29.0 +26.6 87 +45 +45 опасность
перегрева
1012.1 1006.7
03 16.02 С 1 16 км 9/3 330 м
[Sc Cs]
+27.6 +26.5 94 +42 +42 опасность
перегрева
1010.8 1005.4
06 16.02 штиль 0 16 км 8/4 330 м
[Sc Cs]
+26.8 +26.1 96 +40 +40 очень
душно
1011.7 1006.3 +26.3
12 16.02 Ю 8 8000 м мгла 9/5 480 м
[Cu med, cong Cs]
+33.0 +25.0 63 +47 +48 опасность
перегрева
1011.9 1006.6
15 16.02 ЮЗ 2 20 км ясно +32.3 +27.3 75 +51 +62 опасность
перегрева
1009.1 1003.8
18 16.02 ЮЗ 1 18 км 3/1 330 м
[Sc Ci sp]
+30.0 +27.4 86 +48 +48 опасность
перегрева
1009.9 1004.6 +32.3
21 16.02 ЮЗ 1 16 км 1/1 330 м
[Sc]
+29.2 +27.1 88 +46 +46 опасность
перегрева
1012.0 1006.6
00 17.02 ЮЗ 1 16 км 4/4 330 м
[Sc]
+29.2 +27.4 90 +47 +47 опасность
перегрева
1012.8 1007.4
06 17.02 штиль 0 16 км 4/1 330 м
[Sc Ci sp]
+27.5 +26.3 93 +42 +42 опасность
перегрева
1011.5 1006.1 +26.9
18 17.02 ЮЗ 2 18 км 8/1 330 м
[Sc Cs]
+30.4 +26.7 81 +47 +47 опасность
перегрева
1009.3 1004.0 +32.6
00 18.02 ЮЗ 1 16 км 1/1 330 м
[Sc]
+29.2 +27.0 88 +46 +46 опасность
перегрева
1012.1 1006.7
03 18.02 ЮЗ 1 16 км 1/1 330 м
[Sc]
+28.8 +26.7 88 +45 +45 опасность
перегрева
1010.1 1004.7
09 18.02 ЮЗ 1 16 км 5/5 330 м
[Cu Sc]
+30.0 +26.7 83 +47 +53 опасность
перегрева
1012.5 1007.1
00 19.02 ЮЗ 2 14 км 9/5 330 м
[Sc Cs]
+29.3 +26.9 87 +46 +46 опасность
перегрева
1010.7 1005.3

 

Местоположение метеостанции Солтпонд (Гана): широта 5.20 долгота -1.07 высота над уровнем моря 47 м.

В архиве по умолчанию представлена погода в Солтпонде за последнюю неделю. Архивные данные за месяц целиком и за предыдущие месяцы, начиная с января 2011 года, Вы можете получить, выбрав интересующий диапазон дат из раскрывающегося списка и нажав кнопку "Ввод!".


*Определитесь, кто Вы:
робот инопланетянин человек

Внимание! Время в таблицах - всемирное. Для получения местного времени необходимо прибавить поправку, которая равна 1 ч.

Смотрите также архив погоды в соседних городах и на ближайших метеорологических станциях:

Погода в Аким Ода (Гана) (82 км)
Погода Такоради (Гана) (85 км)
Погода в Аккра (Гана) (109 км)
Погода в Тема (Гана) (127 км)
Погода в Кофоридуа (Гана) (133 км)
Погода в Аксиме (Гана) (134 км)
Погода в Акюсе (Гана) (165 км)
Погода в Абетифи (Гана) (167 км)
Погода в Сефви Беквай (Гана) (178 км)
Погода в Кумаси (Гана) (179 км)

Пояснения к столбцам:

Ветер - указаны скорость ветра в м/с - средняя за 10 мин, порывы в срок и между сроками (в фигурных скобках) и направление, откуда дует ветер: С - северный, СВ - северо-восточный, В - восточный, ЮВ - юго-восточный, Ю - южный, ЮЗ - юго-западный, З - западный, СЗ - северо-западный.
Видимость - горизонтальная дальность видимости в метрах или километрах. При видимости от 1 до 10 км при отсутствии осадков обычно наблюдается дымка, при ухудшении видимости до 1 км и менее - туман. В сухую погоду видимость может ухудшаться дымом, пылью или мглою.
Явления - указаны атмосферные явления, наблюдавшиеся в срок или в последний час перед сроком; фигурными скобками обозначены явления, наблюдавшиеся между сроками (за 1-3 часа до срока); квадратными скобками обозначены град или гололедные отложения с указанием их диаметра в мм.
Облачность - указаны через наклонную черту общая и нижняя облачность в баллах и высота нижней границы облаков в метрах; квадратными скобками обозначены формы облаков: Ci - перистые, Cs - перисто-слоистые, Cc - перисто-кучевые, Ac - высококучевые, As - высокослоистые, Sc - слоисто-кучевые, Ns - слоисто-дождевые, Cu - кучевые, Cb - кучево-дождевые. Подробнее классификацию облаков см. в Атласе облаков (PDF).
T - Температура воздуха - температура, измеренная на высоте 2 м над землей.
Td - Температура точки росы - температура, при понижении до которой содержащийся в воздухе водяной пар достигнет насыщения.
f - Относительная влажность воздуха - влажноcть воздуха, измеренная на высоте 2 м над землей.
Te - Эффективная температура - температура, которую ощущает одетый по сезону человек в тени. Характеристика душности погоды. При расчете учитывается влияние влажности воздуха и скорости ветра на теплоощущения человека.
Tes - Эффективная температура на солнце - температура, которую ощущает человек, с поправкой на солнечный нагрев. Характеристика знойности погоды. Зависит от высоты солнца над горизонтом, облачности и скорости ветра. Ночью, в пасмурную погоду, а также при ветре 12 м/с и более поправка равна нулю.
P - Атмосферное давление - приведенное к уровню моря атмосферное давление.
Po - Атмосферное давление - измеренное на уровне метеостанции атмосферное давление.
Tmin - Минимальная температура - минимум температуры воздуха на высоте 2 м над землей.
Tmax - Максимальная температура - максимум температуры воздуха на высоте 2 м над землей.
R - Количество осадков - Количество выпавших осадков за период времени, мм. При наведении курсора мыши на число - период времени, за который выпало указанное количество осадков.
R24 - Количество осадков - Количество выпавших осадков за 24 часа, мм.
S - Снежный покров - Высота снежного покрова, см. При наведении курсора мыши на число - состояние снежного покрова и степень покрытия местности в баллах.